Date String (YYYY-MM-DD hh:mm:ss) UTC,Instrument flags,absolute air pressure of the measurement (hPa),sample flow rate (lpm),inlet stack bypass flow (lpm),air temperature of the measurement (°C),ambient temperature measured by the external sensor (°C),aerosol sample conditioner tube jacket temperature (°C),OPC LED temperature (°C),internal box temperature (°C),relative humidity of the measurement (%),span deviation,mass concentration of particles derived from Lorenz-Mie calculation of OPC scattering (μg/m³),mass concentration of particles derived from Lorenz-Mie calculation of OPC scattering (μg/m³),mass concentration of particles derived from Lorenz-Mie calculation of OPC scattering (μg/m³)
DateTimeUTC,F1_M11,P_M11,Q1_M11,Q2_M11,T1_M11,T2_M11,T3_M11,T4_M11,T5_M11,U1_M11,ZSPAN_M11,X0_M11,X2_M11,X1_M11
2024-05-04 20:00:00,SystemResetWarning,0828.6,5.00,000.00,023.1,022.5,000.0,031.4,024.9,018.5,0000.0,0012.16,0004.51,0003.73
2024-05-04 20:01:00,SystemResetWarning,0828.6,5.00,000.00,023.1,022.6,000.0,031.4,024.9,019.7,0000.0,0012.93,0004.54,0003.75
2024-05-04 20:02:00,SystemResetWarning,0828.6,4.99,000.00,023.1,022.6,000.0,031.4,024.9,020.1,0000.0,0013.45,0004.53,0003.73
2024-05-04 20:03:00,SystemResetWarning,0828.6,4.99,000.00,023.1,022.6,000.0,031.4,024.9,019.6,0000.0,0016.36,0004.57,0003.70
2024-05-04 20:04:00,SystemResetWarning,0828.6,5.00,000.00,023.1,022.6,000.0,031.4,025.0,018.7,0000.0,0016.44,0004.56,0003.68
2024-05-04 20:05:00,SystemResetWarning,0828.6,5.02,000.00,023.1,022.6,000.0,031.4,024.9,019.1,0000.0,0016.40,0004.54,0003.65
2024-05-04 20:06:00,SystemResetWarning,0828.6,5.00,000.00,023.2,022.6,000.0,031.4,025.0,019.4,0000.0,0016.15,0004.50,0003.64
2024-05-04 20:07:00,SystemResetWarning,0828.6,5.00,000.00,023.2,022.7,000.0,031.5,025.0,019.4,0000.0,0016.18,0004.43,0003.62
2024-05-04 20:08:00,SystemResetWarning,0828.5,4.99,000.00,023.2,022.7,000.0,031.5,025.0,018.9,0000.0,0016.98,0004.36,0003.62
2024-05-04 20:09:00,SystemResetWarning,0828.5,4.99,000.00,023.2,022.7,000.0,031.5,025.0,019.1,0000.0,0016.37,0004.31,0003.62
2024-05-04 20:10:00,SystemResetWarning,0828.5,5.00,000.00,023.2,022.7,000.0,031.5,025.0,019.4,0000.0,0017.15,0004.28,0003.58
2024-05-04 20:11:00,SystemResetWarning,0828.4,5.00,000.00,023.2,022.7,000.0,031.5,025.0,019.3,0000.0,0016.73,0004.26,0003.56
2024-05-04 20:12:00,SystemResetWarning,0828.4,5.00,000.00,023.3,022.7,000.0,031.5,025.0,019.6,0000.0,0015.47,0004.25,0003.56
2024-05-04 20:13:00,SystemResetWarning,0828.4,5.01,000.00,023.3,022.8,000.0,031.6,025.0,019.7,0000.0,0015.85,0004.26,0003.59
2024-05-04 20:14:00,SystemResetWarning,0828.4,5.00,000.00,023.3,022.8,000.0,031.6,025.1,019.1,0000.0,0013.29,0004.22,0003.61
2024-05-04 20:15:00,SystemResetWarning,0828.4,4.99,000.00,023.3,022.8,000.0,031.6,025.1,019.3,0000.0,0012.71,0004.23,0003.64
2024-05-04 20:16:00,SystemResetWarning,0828.4,4.99,000.00,023.3,022.8,000.0,031.6,025.1,018.8,0000.0,0013.15,0004.28,0003.67
2024-05-04 20:17:00,SystemResetWarning,0828.4,5.01,000.00,023.3,022.8,000.0,031.6,025.1,018.8,0000.0,0013.68,0004.34,0003.71
2024-05-04 20:18:00,SystemResetWarning,0828.4,5.00,000.00,023.4,022.8,000.0,031.6,025.1,018.8,0000.0,0013.12,0004.40,0003.74
2024-05-04 20:19:00,SystemResetWarning,0828.4,4.99,000.00,023.4,022.8,000.0,031.6,025.1,018.5,0000.0,0012.46,0004.45,0003.77
2024-05-04 20:20:00,SystemResetWarning,0828.4,5.01,000.00,023.4,022.9,000.0,031.6,025.2,018.5,0000.0,0012.31,0004.47,0003.80
2024-05-04 20:21:00,SystemResetWarning,0828.4,5.00,000.00,023.4,022.9,000.0,031.6,025.2,018.4,0000.0,0012.18,0004.53,0003.85
2024-05-04 20:22:00,SystemResetWarning,0828.4,5.00,000.00,023.4,022.9,000.0,031.7,025.2,018.7,0000.0,0013.32,0004.60,0003.89
2024-05-04 20:23:00,SystemResetWarning,0828.4,5.00,000.00,023.4,022.9,000.0,031.7,025.2,019.1,0000.0,0014.30,0004.58,0003.89
2024-05-04 20:24:00,SystemResetWarning,0828.4,5.00,000.00,023.4,022.9,000.0,031.7,025.2,018.8,0000.0,0013.85,0004.52,0003.89
2024-05-04 20:25:00,SystemResetWarning,0828.3,5.00,000.00,023.5,023.0,000.0,031.7,025.2,019.3,0000.0,0013.66,0004.51,0003.88
2024-05-04 20:26:00,SystemResetWarning,0828.3,5.00,000.00,023.5,023.0,000.0,031.7,025.2,019.2,0000.0,0013.52,0004.48,0003.86
2024-05-04 20:27:00,SystemResetWarning,0828.3,5.00,000.00,023.5,023.0,000.0,031.7,025.3,019.0,0000.0,0013.42,0004.48,0003.81
2024-05-04 20:28:00,SystemResetWarning,0828.3,4.99,000.00,023.5,023.0,000.0,031.8,025.3,018.5,0000.0,0013.29,0004.48,0003.79
2024-05-04 20:29:00,SystemResetWarning,0828.3,5.00,000.00,023.5,023.0,000.0,031.8,025.4,018.5,0000.0,0013.08,0004.47,0003.79
2024-05-04 20:30:00,SystemResetWarning,0828.3,5.00,000.00,023.5,023.0,000.0,031.8,025.4,018.8,0000.0,0012.68,0004.46,0003.79
2024-05-04 20:31:00,SystemResetWarning,0828.3,5.00,000.00,023.5,023.0,000.0,031.8,025.4,018.4,0000.0,0012.56,0004.49,0003.80
2024-05-04 20:32:00,SystemResetWarning,0828.3,4.99,000.00,023.6,023.0,000.0,031.8,025.4,018.9,0000.0,0012.60,0004.50,0003.80
2024-05-04 20:33:00,SystemResetWarning,0828.3,5.00,000.00,023.6,023.0,000.0,031.8,025.4,018.7,0000.0,0012.92,0004.51,0003.80
2024-05-04 20:34:00,SystemResetWarning,0828.3,5.01,000.00,023.6,023.0,000.0,031.9,025.4,018.9,0000.0,0012.54,0004.55,0003.82
2024-05-04 20:35:00,SystemResetWarning,0828.4,5.00,000.00,023.6,023.0,000.0,031.9,025.4,019.6,0000.0,0012.27,0004.63,0003.85
2024-05-04 20:36:00,SystemResetWarning,0828.3,5.01,000.00,023.6,023.1,000.0,031.9,025.4,019.1,0000.0,0013.05,0004.65,0003.87
2024-05-04 20:37:00,SystemResetWarning,0828.3,5.01,000.00,023.6,023.1,000.0,031.9,025.4,018.7,0000.0,0013.53,0004.72,0003.92
2024-05-04 20:38:00,SystemResetWarning,0828.3,5.00,000.00,023.6,023.1,000.0,031.9,025.5,018.9,0000.0,0013.59,0004.75,0003.99
2024-05-04 20:39:00,SystemResetWarning,0828.2,5.00,000.00,023.6,023.1,000.0,031.9,025.5,019.0,0000.0,0013.33,0004.74,0004.02
2024-05-04 20:40:00,SystemResetWarning,0828.2,4.99,000.00,023.7,023.1,000.0,031.9,025.4,019.3,0000.0,0013.82,0004.77,0004.01
2024-05-04 20:41:00,SystemResetWarning,0828.2,4.99,000.00,023.7,023.1,000.0,032.0,025.5,019.4,0000.0,0014.01,0004.77,0004.00
2024-05-04 20:42:00,SystemResetWarning,0828.2,5.00,000.00,023.7,023.2,000.0,032.0,025.5,019.4,0000.0,0013.43,0004.74,0003.97
2024-05-04 20:43:00,SystemResetWarning,0828.2,5.02,000.00,023.7,023.2,000.0,032.0,025.5,019.8,0000.0,0013.42,0004.73,0003.94
2024-05-04 20:44:00,SystemResetWarning,0828.2,5.00,000.00,023.7,023.2,000.0,032.0,025.5,019.3,0000.0,0012.41,0004.76,0003.93
2024-05-04 20:45:00,SystemResetWarning,0828.2,4.99,000.00,023.7,023.2,000.0,032.0,025.5,019.0,0000.0,0011.79,0004.72,0003.91
2024-05-04 20:46:00,SystemResetWarning,0828.2,4.99,000.00,023.8,023.2,000.0,032.0,025.5,018.9,0000.0,0011.31,0004.73,0003.91
2024-05-04 20:47:00,SystemResetWarning,0828.2,5.01,000.00,023.8,023.3,000.0,032.1,025.5,019.3,0000.0,0010.46,0004.75,0003.92
2024-05-04 20:48:00,SystemResetWarning,0828.2,5.01,000.00,023.8,023.3,000.0,032.1,025.5,019.9,0000.0,0010.46,0004.75,0003.90
2024-05-04 20:49:00,SystemResetWarning,0828.2,5.00,000.00,023.8,023.3,000.0,032.1,025.6,019.4,0000.0,0010.74,0004.74,0003.88
2024-05-04 20:50:00,SystemResetWarning,0828.1,4.99,000.00,023.8,023.3,000.0,032.1,025.6,019.3,0000.0,0010.70,0004.75,0003.88
2024-05-04 20:51:00,SystemResetWarning,0828.0,4.99,000.00,023.8,023.3,000.0,032.1,025.6,019.6,0000.0,0011.06,0004.78,0003.89
2024-05-04 20:52:00,SystemResetWarning,0828.0,5.01,000.00,023.8,023.3,000.0,032.1,025.6,019.3,0000.0,0011.31,0004.78,0003.92
2024-05-04 20:53:00,SystemResetWarning,0828.0,4.99,000.00,023.9,023.4,000.0,032.1,025.6,019.4,0000.0,0012.05,0004.84,0003.97
2024-05-04 20:54:00,SystemResetWarning,0828.1,4.99,000.00,023.9,023.4,000.0,032.2,025.6,018.8,0000.0,0013.00,0004.88,0004.02
2024-05-04 20:55:00,SystemResetWarning,0828.1,5.00,000.00,023.9,023.4,000.0,032.2,025.7,018.7,0000.0,0012.74,0004.87,0004.07
2024-05-04 20:56:00,SystemResetWarning,0828.1,5.02,000.00,023.9,023.4,000.0,032.2,025.7,018.6,0000.0,0013.27,0004.91,0004.13
2024-05-04 20:57:00,SystemResetWarning,0828.0,4.99,000.00,024.0,023.5,000.0,032.2,025.7,018.6,0000.0,0014.12,0004.95,0004.18
2024-05-04 20:58:00,SystemResetWarning,0828.0,4.99,000.00,024.0,023.5,000.0,032.2,025.8,018.7,0000.0,0014.68,0005.01,0004.23
2024-05-04 20:59:00,SystemResetWarning,0827.9,5.01,000.00,024.0,023.5,000.0,032.2,025.8,018.8,0000.0,0015.24,0005.07,0004.29
